Waarnemingen

Advertentie
Mijn weer
Gallivare, Zweden (2049): temperatuur & dauwpunt: 11.01.2020 23:00:00 - 17.01.2020 23:00:00 (CET)Gallivare, Zweden (2049): windsnelheid & windstoten: 11.01.2020 23:00:00 - 17.01.2020 23:00:00 (CET)Gallivare, Zweden (2049): windrichting: 11.01.2020 23:00:00 - 17.01.2020 23:00:00 (CET)Gallivare, Zweden (2049): luchtdruk: 11.01.2020 23:00:00 - 17.01.2020 23:00:00 (CET)Gallivare, Zweden (2049): zicht: 11.01.2020 23:00:00 - 17.01.2020 23:00:00 (CET)Gallivare, Zweden (2049): neerslag: 11.01.2020 23:00:00 - 17.01.2020 23:00:00 (CET)
Datum & Tijd tt [°C] td [°C] ff [km/u] ff [kn] fx [km/u] fx [kn] dd ppp [hPa] vv [km] rr [mm]
17.01.2020 23:00:00 -8,4 -9,7 3 1 11 6 O 1012,3 1,7 0,1
17.01.2020 22:00:00 -8,4 -9,7 4 2 9 5 OZO 1012,7 4,4 0,0
17.01.2020 21:00:00 -8,4 -9,6 3 2 11 6 OZO 1013,1 5 0,0
17.01.2020 20:00:00 -8,3 -9,4 7 4 12 7 O 1013,3 2,9 0,1
17.01.2020 19:00:00 -8,0 -9,2 6 3 14 8 O 1013,6 2,3 0,1
17.01.2020 18:00:00 -7,8 -9,2 4 2 10 5 OZO 1013,3 7 0,0
17.01.2020 17:00:00 -7,6 -9,0 6 3 9 5 O 1012,9 10 0,0
17.01.2020 16:00:00 -7,5 -8,8 5 3 8 5 O 1012,8 9 0,0
17.01.2020 15:00:00 -7,4 -8,8 2 1 9 5 OZO 1012,8 12 0,0
17.01.2020 14:00:00 -8,1 -9,3 0 0 5 3 N 1012,8 13 0,0
17.01.2020 13:00:00 -8,2 -9,4 0 0 4 2 N 1012,0 25 0,0
17.01.2020 12:00:00 -7,5 -8,7 3 2 5 3 WZW 1012,0 19 0,0
17.01.2020 11:00:00 -7,8 -9,0 2 1 7 4 W 1011,1 21 0,0
17.01.2020 10:00:00 -7,6 -8,9 4 2 8 5 O 1010,1 26 0,0
17.01.2020 09:00:00 -8,4 -9,7 3 1 7 4 WZW 1008,8 15 0,0
17.01.2020 08:00:00 -8,5 -9,7 2 1 7 4 WNW 1008,3 43 0,0
17.01.2020 07:00:00 -8,9 -10,1 0 0 6 3 N 1007,6 50 0,0
17.01.2020 06:00:00 -10,1 -11,4 2 1 8 4 WZW 1006,5 25 0,2
17.01.2020 05:00:00 -11,5 -12,8 2 1 9 5 WZW 1005,1 9 0,1
17.01.2020 04:00:00 -13,0 -14,7 4 2 9 5 WZW 1004,1 50 0,0
17.01.2020 03:00:00 -12,0 -13,4 5 3 14 8 WNW 1003,4 45 0,0
17.01.2020 02:00:00 -17,8 -20,3 6 3 8 4 W 1002,9 50 0,0
17.01.2020 01:00:00 -15,2 -16,7 2 1 5 3 ZO 1001,8 42 0,0
17.01.2020 00:00:00 -13,5 -15,2 3 2 6 3 NW 1001,1 41 0,0
16.01.2020 23:00:00 -10,6 -12,1 4 2 7 4 ONO 1000,6 23 0,0
16.01.2020 22:00:00 -9,0 -10,3 3 2 7 4 NO 1000,2 19 0,0
16.01.2020 21:00:00 -8,3 -9,5 0 0 10 5 N 999,8 20 0,0
16.01.2020 20:00:00 -8,4 -9,7 8 4 16 9 Z 999,8 22 0,0
16.01.2020 19:00:00 -8,7 -9,9 5 3 16 9 OZO 999,9 2,9 0,1
16.01.2020 18:00:00 -9,0 -10,2 5 3 13 7 O 999,9 6 0,0
16.01.2020 17:00:00 -8,9 -10,1 3 2 14 7 ONO 1000,3 16 0,0
16.01.2020 16:00:00 -8,9 -10,1 3 1 9 5 OZO 1000,9 1,0 0,0
16.01.2020 15:00:00 -9,0 -10,2 2 1 9 5 OZO 1000,9 7 0,0
16.01.2020 14:00:00 -8,8 -10,0 4 2 7 4 O 1001,0 19 0,0
16.01.2020 13:00:00 -8,8 -9,9 4 2 8 5 OZO 1000,6 7 0,0
16.01.2020 12:00:00 -8,5 -9,6 0 0 4 2 N 1000,5 13 0,0
16.01.2020 11:00:00 -8,3 -9,4 0 0 5 3 N 1000,2 13 0,0
16.01.2020 10:00:00 -8,2 -9,2 3 2 7 4 O 999,4 6 0,0
16.01.2020 09:00:00 -8,2 -9,3 0 0 7 4 N 999,1 7 0,0
16.01.2020 08:00:00 -8,9 -10,1 0 0 3 2 N 998,6 14 0,0
16.01.2020 07:00:00 -9,3 -10,5 0 0 5 3 N 997,5 16 0,0
16.01.2020 06:00:00 -9,9 -11,2 0 0 6 3 N 997,2 20 0,0
16.01.2020 05:00:00 -9,8 -11,1 0 0 5 3 N 996,7 16 0,0
16.01.2020 04:00:00 -10,6 -11,9 0 0 7 4 N 996,0 17 0,0
16.01.2020 03:00:00 -10,3 -11,6 4 2 7 4 W 995,2 29 0,0
16.01.2020 02:00:00 -10,7 -12,0 5 3 9 5 W 994,6 50 0,0
16.01.2020 01:00:00 -11,8 -13,2 4 2 5 3 WZW 993,6 50 0,0
16.01.2020 00:00:00 -10,2 -11,5 4 2 9 5 W 992,8 49 0,0
15.01.2020 23:00:00 -12,4 -13,8 5 3 8 4 W 992,3 50 0,0
15.01.2020 22:00:00 -10,1 -11,4 5 3 6 4 W 991,0 50 0,0
15.01.2020 21:00:00 -9,4 -10,6 5 3 8 4 W 989,9 27 0,0
15.01.2020 20:00:00 -10,0 -11,3 3 2 9 5 W 988,9 50 0,0
15.01.2020 19:00:00 -9,3 -10,5 5 3 9 5 W 988,0 16 0,0
15.01.2020 18:00:00 -10,8 -12,1 2 1 4 2 W 987,3 1,5 0,0
15.01.2020 17:00:00 -11,4 -12,8 2 1 4 2 ZW 986,3 2,3 0,0
15.01.2020 16:00:00 -12,3 -13,6 2 1 4 2 O 985,5 6 0,0
15.01.2020 15:00:00 -13,9 -15,5 0 0 3 2 N 985,2 0,6 0,0
15.01.2020 14:00:00 -16,2 -18,0 2 1 4 2 WZW 984,8 50 0,0
15.01.2020 13:00:00 -17,3 -19,5 0 0 4 2 N 984,3 29 0,0
15.01.2020 12:00:00 -16,3 -18,2 3 2 6 4 ZZW 983,7 43 0,0
15.01.2020 11:00:00 -14,2 -15,7 3 2 7 4 N 983,3 19 0,0
15.01.2020 10:00:00 -15,0 -16,8 0 0 5 3 N 983,3 - -
15.01.2020 09:00:00 -13,0 -14,7 2 1 8 5 NO 982,7 - -
15.01.2020 08:00:00 -11,8 -13,4 0 0 8 4 N 982,2 13 -
15.01.2020 07:00:00 -12,2 -13,9 3 1 6 3 Z 982,0 21 0,0
15.01.2020 06:00:00 -8,9 -10,2 3 2 11 6 NO 981,8 48 0,0
15.01.2020 05:00:00 -8,4 -9,7 3 2 11 6 WNW 981,4 50 0,0
15.01.2020 04:00:00 -5,0 -6,0 4 2 16 9 NO 981,0 50 0,0
15.01.2020 03:00:00 -4,2 -5,2 7 4 18 10 NNW 980,2 50 0,0
15.01.2020 02:00:00 -4,0 -5,0 8 5 21 12 NW 980,4 50 0,0
15.01.2020 01:00:00 -4,0 -4,7 10 5 17 9 W 980,1 50 0,0
15.01.2020 00:00:00 -5,5 -6,0 5 3 12 7 W 980,0 50 -
14.01.2020 23:00:00 -7,4 -8,3 3 1 8 4 O 980,3 46 0,0
14.01.2020 22:00:00 -6,5 -7,4 2 1 6 3 O 980,3 6 0,1
14.01.2020 21:00:00 -6,0 -6,8 3 2 10 5 O 980,3 3,1 0,3
14.01.2020 20:00:00 -6,4 -7,3 7 4 12 6 ONO 981,0 1,6 0,4
14.01.2020 19:00:00 -6,9 -7,8 7 4 12 7 ONO 981,9 2,3 0,6
14.01.2020 18:00:00 -7,3 -8,2 9 5 17 9 O 983,1 1,0 1,3
14.01.2020 17:00:00 -7,6 -8,7 10 5 16 9 O 984,5 1,0 0,8
14.01.2020 16:00:00 -7,5 -8,5 10 6 15 8 O 985,8 2,2 0,8
14.01.2020 15:00:00 -8,3 -9,4 8 5 16 8 O 987,2 1,2 0,6
14.01.2020 14:00:00 -8,2 -9,3 10 5 17 9 O 988,3 2,1 0,2
14.01.2020 13:00:00 -8,0 -8,9 10 5 17 9 O 989,1 6 0,0
14.01.2020 12:00:00 -8,3 -9,4 9 5 14 8 ONO 990,2 49 0,0
14.01.2020 11:00:00 -9,5 -10,6 4 2 10 5 OZO 991,0 45 0,0
14.01.2020 10:00:00 -12,1 -13,8 0 0 3 1 N 992,4 50 0,0
14.01.2020 09:00:00 -10,6 -11,9 0 0 10 5 N 992,6 50 0,0
14.01.2020 08:00:00 -11,9 -13,5 2 1 8 4 ZW 993,3 50 0,0
14.01.2020 07:00:00 -12,6 -14,3 0 0 7 4 N 993,1 35 0,0
14.01.2020 06:00:00 -11,1 -12,3 0 0 7 4 N 992,9 50 0,0
14.01.2020 05:00:00 -10,4 -11,9 3 1 9 5 NW 992,8 50 0,0
14.01.2020 04:00:00 -6,3 -8,7 5 3 19 11 W 992,1 50 0,0
14.01.2020 03:00:00 -5,5 -7,5 11 6 18 10 W 991,9 50 0,0
14.01.2020 02:00:00 -5,5 -7,5 10 5 16 9 WNW 991,4 50 0,0
14.01.2020 01:00:00 -4,5 -6,8 11 6 20 11 WNW 990,9 50 0,0
14.01.2020 00:00:00 -8,7 -9,6 5 3 13 7 NNW 990,9 50 0,0
13.01.2020 23:00:00 -4,3 -7,2 11 6 16 9 NNW 990,1 50 0,0
13.01.2020 22:00:00 -8,8 -9,6 8 4 12 7 ONO 989,9 47 0,0
13.01.2020 21:00:00 -8,8 -9,7 6 4 11 6 N 989,1 50 0,0
13.01.2020 20:00:00 -10,4 -12,0 2 1 13 7 Z 988,7 7 0,0
13.01.2020 19:00:00 -8,6 -9,8 4 2 16 8 NNO 987,9 43 0,0
13.01.2020 18:00:00 -3,8 -5,1 9 5 18 10 W 987,1 50 0,0
13.01.2020 17:00:00 -5,3 -6,4 3 2 13 7 ZW 986,8 50 0,0
13.01.2020 16:00:00 -6,4 -8,3 3 2 18 10 N 986,8 50 0,0
13.01.2020 15:00:00 -4,0 -6,1 8 5 25 14 NW 986,9 50 0,0
13.01.2020 14:00:00 -4,6 -6,7 14 8 24 13 NW 987,7 50 0,0
13.01.2020 13:00:00 -8,0 -9,5 5 3 15 8 NNW 988,2 50 0,0
13.01.2020 12:00:00 -10,9 -12,6 3 2 16 9 OZO 988,5 41 0,0
13.01.2020 11:00:00 -10,3 -12,3 3 1 23 12 NNO 988,7 50 0,0
13.01.2020 10:00:00 -10,1 -11,5 3 2 23 12 N 988,7 50 0,0
13.01.2020 09:00:00 -11,9 -13,5 3 2 12 6 NNO 988,9 32 0,0
13.01.2020 08:00:00 -13,5 -15,6 0 0 8 5 N 988,9 32 0,0
13.01.2020 07:00:00 -12,0 -13,3 3 1 16 9 O 988,8 39 0,0
13.01.2020 06:00:00 -11,4 -12,7 5 3 11 6 NO 988,7 20 0,0
13.01.2020 05:00:00 -13,2 -14,8 5 3 9 5 ZZO 988,7 46 0,0
13.01.2020 04:00:00 -13,2 -14,8 2 1 7 4 ZO 988,8 41 0,0
13.01.2020 03:00:00 -11,8 -13,7 4 2 11 6 OZO 988,8 32 0,0
13.01.2020 02:00:00 -10,1 -11,7 3 2 14 7 NO 988,4 43 0,0
13.01.2020 01:00:00 -10,0 -11,9 5 3 10 5 O 988,2 36 0,0
13.01.2020 00:00:00 -9,5 -10,8 3 2 7 4 O 988,1 32 0,0
12.01.2020 23:00:00 -12,3 -14,0 4 2 9 5 ZW 988,4 22 0,0
12.01.2020 22:00:00 -13,1 -14,6 4 2 12 6 NW 988,4 19 0,0
12.01.2020 21:00:00 -13,3 -15,0 3 2 7 4 NO 988,1 15 0,0
12.01.2020 20:00:00 -11,6 -13,0 4 2 12 7 Z 987,3 18 0,0
12.01.2020 19:00:00 -9,3 -11,2 8 5 14 7 W 986,6 22 0,0
12.01.2020 18:00:00 -9,2 -12,0 3 1 16 8 ZZW 986,7 23 0,0
12.01.2020 17:00:00 -4,3 -8,9 10 6 20 11 W 985,5 34 0,0
12.01.2020 16:00:00 -3,0 -8,2 13 7 19 11 WNW 985,2 41 0,0
12.01.2020 15:00:00 -3,2 -7,9 10 5 16 9 W 984,9 27 0,0
12.01.2020 14:00:00 -1,7 -7,0 8 4 26 14 W 984,3 30 0,0
12.01.2020 13:00:00 -0,8 -5,8 14 8 30 16 W 983,3 43 0,0
12.01.2020 12:00:00 -1,0 -5,6 15 8 31 17 WNW 982,2 31 0,0
12.01.2020 11:00:00 -0,8 -5,6 18 10 33 18 WNW 981,3 45 0,0
12.01.2020 10:00:00 -2,8 -5,3 13 7 27 15 WNW 980,7 50 0,0
12.01.2020 09:00:00 -1,6 -4,8 15 8 25 13 W 979,5 50 0,0
12.01.2020 08:00:00 -3,0 -5,3 10 5 28 15 WNW 979,1 50 0,0
12.01.2020 07:00:00 -2,9 -4,8 11 6 24 13 NW 978,6 50 0,0
12.01.2020 06:00:00 -1,7 -3,6 16 9 29 16 W 978,1 50 0,0
12.01.2020 05:00:00 -2,8 -4,4 11 6 23 12 WNW 977,8 50 0,0
12.01.2020 04:00:00 -4,8 -5,7 6 4 15 8 W 977,7 50 0,0
12.01.2020 03:00:00 -6,8 -7,6 5 3 13 7 Z 978,0 50 0,0
12.01.2020 02:00:00 -5,7 -6,8 5 3 11 6 O 978,8 50 0,0
12.01.2020 01:00:00 -5,8 -7,3 4 2 23 12 NNO 979,1 50 0,0
12.01.2020 00:00:00 -3,5 -5,8 14 8 40 21 WNW 978,7 50 0,0
11.01.2020 23:00:00 -4,5 -6,8 4 2 27 14 ZZW 979,1 50 0,0

tt = temperatuur
td = dauwpunt
ff = windsnelheid
fx = windstoten
dd = windrichting
ppp = luchtdruk
vv = zicht
rr = neerslag

Weerstations in de omgeving